Regional Weather Roundup
Issued by NWS

Home | Current Version | Previous Version | Graphics & Text | Print | Product List | Glossary On
Versions: 1 2 3 4 5 6 7 8 9 10 11 12 13 14 15 16 17 18 19 20 21 22 23 24 25 26 27 28 29 30 31 32 33 34 35 36 37 38 39 40 41 42 43 44 45 46 47 48 49 50
000
ASUS45 KSLC 310510
RWRUT

UTAH REGIONAL WEATHER ROUNDUP
NATIONAL WEATHER SERVICE SALT LAKE CITY UT
1000 PM MST FRI JAN 30 2015

UTZ001>011-023>025-310600-

NORTHERN UTAH

CITY           SKY/WX    TMP DP  RH WIND       PRES   REMARKS
BRIGHAM CITY   CLOUDY    43  32  65 W9        30.00F
HILL AFB       CLOUDY    41  30  65 E24G31    29.97F
LOGAN          CLOUDY    36  33  89 N5        30.02F WCI  32
OGDEN          CLOUDY    43  33  68 W8        29.97F
PROVO AIRPORT  CLOUDY    41  34  75 NW7       29.97S
SALT LAKE CITY CLOUDY    41  36  82 W8        29.97F
VERNAL         LGT RAIN  38  37  97 W5        29.99S FOG     WCI  34
WENDOVER       CLOUDY    41  30  65 NE6       30.02R
HEBER CITY     CLOUDY    34  32  93 E5        29.99S WCI  30
WEST JORDAN    CLOUDY    43  36  75 N6G22     29.98S

$$

UTZ012>022-026-027-310600-

SOUTHERN/CENTRAL UTAH

CITY           SKY/WX    TMP DP  RH WIND       PRES   REMARKS
BLANDING       CLOUDY    32  32 100 W3        30.04F
BRYCE CANYON   FLURRIES  30  29  96 CALM      29.94R
CEDAR CITY     CLOUDY    38  36  92 NW5       29.89S WCI  34
DELTA          CLOUDY    38  38  97 N10       29.95S WCI  31
HANKSVILLE     CLOUDY    41  39  93 CALM      29.99S
MILFORD        LGT RAIN  38  36  92 N15       29.92S WCI  29
MOAB/CYNLANDS  LGT RAIN  42  39  89 CALM      29.94F
PRICE          MIX PCPN  37  35  92 CALM      29.97S
ST GEORGE      CLOUDY    46  45  93 CALM      29.91R
KANAB          CLOUDY    37  34  87 NE13      29.96S WCI  29

$$

REGIONAL REPORTS     COLORADO/ARIZONA

CITY           SKY/WX    TMP DP  RH WIND       PRES   REMARKS
CRAIG, CO      CLOUDY    33  30  88 CALM      29.96F
GRAND JUNCTION LGT RAIN  39  39 100 NE3       29.96R
RIFLE          LGT RAIN  37  35  92 CALM      29.96S
MONTROSE       CLOUDY    39  37  92 CALM      29.97F
CORTEZ         LGT RAIN  36  34  92 W7        29.97S WCI  30
PAGE, AZ       NOT AVBL
GRAND CANYON   LGT RAIN  38  37  97 E3        29.90S FOG
KINGMAN        CLOUDY    46  44  93 NE7       29.86F
FLAGSTAFF      CLOUDY    38  36  92 CALM      29.91S FOG

$$

REGIONAL REPORTS    NEVADA/IDAHO/WYOMING

CITY           SKY/WX    TMP DP  RH WIND       PRES   REMARKS
LAS VEGAS, NV  CLOUDY    51  44  77 S7        29.84R
ELY            CLOUDY    33  33 100 N13G20    29.97R WCI  24
ELKO           PTCLDY    36  28  73 N3        30.03R
POCATELLO, ID  CLOUDY    32  32 100 SW12      30.11R WCI  23
BURLEY         CLOUDY    34  31  88 S5        30.11F WCI  30
EVANSTON, WY   SNOW      31  29  92 N7        30.02F VSB 1/2 WCI  24
ROCK SPRINGS   CLOUDY    29  26  89 NE16      30.04R WCI  17
KEMMERER       LGT SNOW  30  28  93 NE13      30.05S WCI  20

$$



USA.gov is the U.S. government's official web portal to all federal, state and local government web resources and services.